This demonstration page uses our WeatherBlox Daily Observations layout. Learn more.

Left ArrowRight Arrow

41.12389, -100.76542

Hourly Observations for January 9, 2018

Temp ( °F °C ) Dew Point ( °F °C ) Humidity (%) Winds ( mph kmh ) Pressure ( in mb ) Visibility ( mi km ) Precip ( " mm )
12:53 am 00:53 Clear 34 1.1 28 -2.2 79 79 S 6 9 29.92 1013 10 16 0.00 0.00
1:53 am 01:53 Clear 33 0.6 25 -3.9 72 72 Calm 29.90 1012 10 16 0.00 0.00
2:53 am 02:53 Clear 35 1.7 27 -2.8 72 72 W 5 7 29.89 1012 10 16 0.00 0.00
3:53 am 03:53 Clear 32 0 27 -2.8 82 82 ENE 3 6 29.87 1012 10 16 0.00 0.00
4:53 am 04:53 Clear 31 -0.6 26 -3.3 82 82 Calm 29.87 1011 10 16 0.00 0.00
5:53 am 05:53 Clear 32 0 27 -2.8 82 82 Calm 29.88 1012 10 16 0.00 0.00
6:53 am 06:53 Clear 30 -1.1 26 -3.3 85 85 NW 6 9 29.90 1012 10 16 0.00 0.00
7:53 am 07:53 Clear 26 -3.3 23 -5 88 88 WNW 5 7 29.91 1013 10 16 0.00 0.00
8:53 am 08:53 Sunny 30 -1.1 26 -3.3 85 85 WSW 3 6 29.90 1013 10 16 0.00 0.00
9:53 am 09:53 Sunny 36 2.2 29 -1.7 76 76 W 6 9 29.89 1012 10 16 0.00 0.00
10:53 am 10:53 Sunny 41 5 30 -1.1 65 65 Calm 29.85 1011 10 16 0.00 0.00
11:53 am 11:53 Sunny 47 8.3 32 0 56 56 Calm 29.80 1009 10 16 0.00 0.00
12:53 pm 12:53 Sunny 50 10 34 1.1 54 54 SE 3 6 29.77 1008 10 16 0.00 0.00
1:53 pm 13:53 Sunny 56 13.3 33 0.6 42 42 S 8 13 29.73 1007 10 16 0.00 0.00
2:53 pm 14:53 Sunny 58 14.4 35 1.7 42 42 SSW 7 11 29.71 1006 10 16 0.00 0.00
3:53 pm 15:53 Sunny 59 15 34 1.1 39 39 SSW 5 7 29.72 1006 10 16 0.00 0.00
4:53 pm 16:53 Sunny 52 11.1 33 0.6 49 49 S 6 9 29.72 1007 10 16 0.00 0.00
5:53 pm 17:53 Clear 42 5.6 31 -0.6 65 65 Calm 29.72 1007 10 16 0.00 0.00
6:53 pm 18:53 Clear 36 2.2 28 -2.2 73 73 ESE 3 6 29.73 1007 10 16 0.00 0.00
7:53 pm 19:53 Clear 38 3.3 29 -1.7 70 70 Calm 29.74 1007 10 16 0.00 0.00
8:53 pm 20:53 Clear 37 2.8 27 -2.8 67 67 E 5 7 29.72 1007 10 16 0.00 0.00
9:53 pm 21:53 Clear 38 3.3 27 -2.8 65 65 ESE 6 9 29.69 1006 10 16 0.00 0.00
10:53 pm 22:53 Clear 42 5.6 28 -2.2 58 58 SE 7 11 29.65 1004 10 16 0.00 0.00
11:53 pm 23:53 Clear 42 5.6 27 -2.8 55 55 S 8 13 29.62 1003 10 16 0.00 0.00

Powered by AerisWeather